Location: Carlisle
(34.5501°N, 84.5969°W)
Time: 11:31:32
(UTC+00:00)

UNISAT 6 - Pass Details

Date: 05 April 2023
Orbit: 599 x 679 km, 97.7° (Epoch: 07 June)

Event Time Altitude Azimuth Distance (km) Brightness Sun altitude
Rises 10:00:29 0° 150° (SSE) 2,913 ? -16.8°
Reaches altitude 10° 10:02:44 10° 143° (SE) 2,023 ? -16.3°
Maximum altitude 10:06:53 41° 73° (ENE) 946 ? -15.5°
Drops below altitude 10° 10:11:08 10° 4° (N) 2,082 ? -14.7°
Sets 10:13:29 0° 357° (N) 3,011 ? -14.2°
